Bennington, VT

11:16 PM EST on November 24, 2017 (GMT -0500)
Morse State

Weather History for KDDH - November, 2013

Change the Weather History Date:

Friday, November 8, 2013

  Actual Average Record
Temperature  
Mean Temperature 35 °F 41 °F  
Max Temperature 42 °F 51 °F 66 °F (2011)
Min Temperature 27 °F 31 °F 23 °F (2017)
Degree Days  
Heating Degree Days 30 24  
Month to date heating degree days 180 186  
Since 1 July heating degree days 934 1007  
Cooling Degree Days 0 0  
Month to date cooling degree days 0 0  
Year to date cooling degree days 503 313  
Moisture  
Dew Point 27 °F    
Average Humidity 65    
Maximum Humidity 82    
Minimum Humidity 48    
Precipitation  
Precipitation T in 0.11 in 1.16 in (2006)
Month to date precipitation 0.91 0.91  
Year to date precipitation 40.20 35.71  
Sea Level Pressure  
Sea Level Pressure 29.96 in    
Wind  
Wind Speed 8 mph (West)    
Max Wind Speed 23 mph    
Max Gust Speed 35 mph    
Visibility 9 miles    
Events Rain , Snow    
T = Trace of Precipitation, MM = Missing Value Source: NWS Daily Summary

Daily Weather History Graph

Daily Weather History Graph

Search for Another Location

Airport or City:

Trip Planner

Search our weather history database for the weather conditions in past years. The results will help you decide how hot, cold, wet, or windy it might be!

Date:

Astronomy

Nov. 08, 2013 Rise Set
Actual Time 6:36 AM EST 4:36 PM EST
Civil Twilight 6:06 AM EST 5:06 PM EST
Nautical Twilight 5:32 AM EST 5:40 PM EST
Astronomical Twilight 4:59 AM EST 6:13 PM EST
Moon 11:30 AM EST (11/8) 9:54 PM EST (11/8)
Length of Visible Light 11h 00m
Length of Day
10h 00m
Waxing Crescent, 33% of the Moon is Illuminated
Nov 8
Waxing Crescent
Nov 10
First Quarter
Nov 17
Full
Nov 25
Last Quarter
Dec 2
New

Hourly Weather History & Observations

Time (EST) Temp. Windchill Dew Point Humidity Pressure Visibility Wind Dir Wind Speed Gust Speed Precip Events Conditions
12:54 AM 35.1 °F 32.2 °F 19.0 °F 52% 29.87 in 10.0 mi WNW 3.5 mph - N/A   Partly Cloudy
1:54 AM 32.0 °F - 19.9 °F 61% 29.88 in 10.0 mi Calm Calm - N/A   Clear
2:54 AM 30.0 °F 25.2 °F 21.9 °F 72% 29.88 in 10.0 mi SSW 4.6 mph - N/A   Mostly Cloudy
3:22 AM 30.2 °F 25.4 °F 23.0 °F 75% 29.86 in 10.0 mi SSW 4.6 mph - N/A   Overcast
3:39 AM 33.8 °F 30.8 °F 24.8 °F 70% 29.86 in 10.0 mi SW 3.5 mph - N/A   Overcast
3:54 AM 34.0 °F 28.8 °F 26.1 °F 73% 29.87 in 10.0 mi SSW 5.8 mph - N/A   Overcast
4:54 AM 35.1 °F 29.3 °F 30.9 °F 85% 29.88 in 10.0 mi Variable 6.9 mph - N/A   Overcast
5:54 AM 36.0 °F 30.3 °F 30.9 °F 82% 29.89 in 10.0 mi Variable 6.9 mph - N/A   Overcast
6:54 AM 36.0 °F 29.6 °F 30.9 °F 82% 29.91 in 10.0 mi WSW 8.1 mph - N/A   Overcast
7:54 AM 37.0 °F 31.0 °F 30.9 °F 79% 29.93 in 10.0 mi SW 8.1 mph - 0.00 in Rain Light Rain
8:46 AM 37.4 °F 31.4 °F 30.2 °F 75% 29.92 in 10.0 mi West 8.1 mph 18.4 mph 0.00 in   Overcast
8:54 AM 37.0 °F 31.6 °F 30.9 °F 79% 29.94 in 10.0 mi West 6.9 mph 18.4 mph 0.00 in   Overcast
9:11 AM 37.4 °F 30.8 °F 30.2 °F 75% 29.92 in 10.0 mi WSW 9.2 mph - N/A   Overcast
9:54 AM 37.9 °F 32.1 °F 30.9 °F 76% 29.94 in 10.0 mi West 8.1 mph 19.6 mph N/A   Overcast
10:01 AM 37.4 °F 32.1 °F 30.2 °F 75% 29.93 in 10.0 mi West 6.9 mph - N/A   Overcast
10:44 AM 39.2 °F 32.0 °F 30.2 °F 70% 29.93 in 10.0 mi West 11.5 mph - N/A   Mostly Cloudy
10:54 AM 39.9 °F 35.8 °F 28.9 °F 65% 29.94 in 10.0 mi Variable 5.8 mph 17.3 mph N/A   Overcast
11:15 AM 39.2 °F 32.5 °F 28.4 °F 65% 29.92 in 10.0 mi West 10.4 mph 18.4 mph N/A   Overcast
11:54 AM 42.1 °F 34.5 °F 26.1 °F 53% 29.93 in 10.0 mi West 15.0 mph 23.0 mph N/A   Overcast
12:54 PM 39.9 °F 31.8 °F 26.1 °F 58% 29.93 in 9.0 mi West 15.0 mph 32.2 mph N/A   Overcast
1:09 PM 37.4 °F 27.8 °F 28.4 °F 70% 29.93 in 1.8 mi West 17.3 mph 27.6 mph 0.00 in Snow Light Snow
1:15 PM 35.6 °F 28.0 °F 28.4 °F 75% 29.93 in 0.8 mi WNW 10.4 mph 27.6 mph 0.00 in Snow Light Snow
1:26 PM 35.6 °F 29.9 °F 30.2 °F 81% 29.93 in 2.0 mi NW 6.9 mph 16.1 mph 0.00 in Snow Light Snow
1:29 PM 35.6 °F 29.9 °F 30.2 °F 81% 29.93 in 4.0 mi NW 6.9 mph - 0.00 in Snow Light Snow
1:54 PM 37.0 °F 28.5 °F 28.9 °F 73% 29.97 in 8.0 mi West 13.8 mph 26.5 mph 0.00 in Snow Light Snow
2:54 PM 37.9 °F 30.0 °F 24.1 °F 57% 29.99 in 10.0 mi West 12.7 mph 25.3 mph 0.00 in   Overcast
3:54 PM 37.9 °F 30.9 °F 19.0 °F 47% 30.01 in 10.0 mi WNW 10.4 mph - N/A   Scattered Clouds
4:54 PM 36.0 °F 30.3 °F 19.9 °F 52% 30.04 in 10.0 mi Variable 6.9 mph - N/A   Mostly Cloudy
5:54 PM 35.1 °F 30.1 °F 23.0 °F 61% 30.06 in 10.0 mi SW 5.8 mph - N/A   Clear
6:54 PM 34.0 °F 28.0 °F 25.0 °F 70% 30.08 in 10.0 mi Variable 6.9 mph - N/A   Clear
7:54 PM 33.1 °F 27.7 °F 25.0 °F 72% 30.09 in 10.0 mi SW 5.8 mph - N/A   Partly Cloudy
8:54 PM 33.1 °F 30.0 °F 25.0 °F 72% 30.11 in 10.0 mi NW 3.5 mph - N/A   Overcast
9:54 PM 34.0 °F 26.6 °F 24.1 °F 67% 30.12 in 10.0 mi West 9.2 mph - N/A   Overcast
10:54 PM 33.1 °F 26.9 °F 25.0 °F 72% 30.12 in 10.0 mi West 6.9 mph - N/A   Overcast
11:54 PM 32.0 °F 26.4 °F 21.9 °F 66% 30.13 in 10.0 mi West 5.8 mph - N/A   Clear